When you browse on this site, cookies collect data to enhance your experience and personalize the content and advertising you see.
Visit our Privacy Policy to learn more. By continuing to use the site, you agree to this use of cookies and data.
  • en Suisse
  • Liste des pays
  • À 7 jours
  • Température de l'eau
  • Carte météo
  • Widgets météo
  • user-avatar
    Se connecter

    Météo par heure à Pomoriye

    Ce jour, 17 Octobre, Jeudi

    Heure Température Précipitation Vent Pression Humidité
    00:00 +15°C° 0 mm 1 m/s 763 mmHg 92%
    01:00 +15°C° 0 mm 1 m/s 763 mmHg 92%
    02:00 +15°C° 0 mm 1 m/s 763 mmHg 92%
    03:00 +14°C° 0 mm 1 m/s 763 mmHg 91%
    04:00 +14°C° 0 mm 1 m/s 763 mmHg 91%
    05:00 +14°C° 0 mm 1 m/s 763 mmHg 91%
    06:00 +15°C° 0 mm 1 m/s 763 mmHg 88%
    07:00 +16°C° 0 mm 1 m/s 763 mmHg 84%
    08:00 +18°C° 0 mm 1 m/s 763 mmHg 81%
    09:00 +20°C° 0 mm 1 m/s 763 mmHg 72%
    10:00 +22°C° 0 mm 1 m/s 764 mmHg 63%
    11:00 +24°C° 0 mm 1 m/s 764 mmHg 54%
    12:00 +24°C° 0 mm 1 m/s 763 mmHg 53%
    13:00 +24°C° 0 mm 2 m/s 763 mmHg 52%
    14:00 +25°C° 0 mm 2 m/s 763 mmHg 51%
    15:00 +23°C° 0 mm 2 m/s 763 mmHg 59%
    16:00 +21°C° 0 mm 2 m/s 763 mmHg 67%
    17:00 +19°C° 0 mm 2 m/s 763 mmHg 76%
    18:00 +20°C° 0 mm 1 m/s 763 mmHg 79%
    19:00 +19°C° 0 mm 1 m/s 763 mmHg 83%
    20:00 +18°C° 0 mm 1 m/s 763 mmHg 87%
    21:00 +15°C° 0 mm 0 m/s 763 mmHg 86%
    22:00 +15°C° 0 mm 0 m/s 764 mmHg 85%
    23:00 +15°C° 0 mm 0 m/s 764 mmHg 84%

    Demain, 18 Octobre, Vendredi

    Heure Température Précipitation Vent Pression Humidité
    00:00 +15°C° 0 mm 0 m/s 764 mmHg 84%
    01:00 +14°C° 0 mm 0 m/s 764 mmHg 83%
    02:00 +15°C° 0 mm 1 m/s 763 mmHg 82%
    03:00 +15°C° 0 mm 1 m/s 763 mmHg 82%
    04:00 +15°C° 0 mm 1 m/s 763 mmHg 82%
    05:00 +15°C° 0 mm 1 m/s 763 mmHg 81%
    06:00 +16°C° 0 mm 1 m/s 764 mmHg 77%
    07:00 +18°C° 0 mm 1 m/s 764 mmHg 73%
    08:00 +18°C° 0 mm 1 m/s 764 mmHg 69%
    09:00 +20°C° 0 mm 1 m/s 764 mmHg 62%
    10:00 +22°C° 0 mm 1 m/s 764 mmHg 55%
    11:00 +24°C° 0 mm 1 m/s 764 mmHg 48%
    12:00 +24°C° 0 mm 1 m/s 764 mmHg 48%
    13:00 +25°C° 0 mm 2 m/s 763 mmHg 47%
    14:00 +25°C° 0 mm 2 m/s 763 mmHg 47%
    15:00 +24°C° 0 mm 2 m/s 763 mmHg 54%
    16:00 +21°C° 0 mm 2 m/s 763 mmHg 61%
    17:00 +19°C° 0 mm 2 m/s 763 mmHg 69%
    18:00 +19°C° 0 mm 1 m/s 763 mmHg 72%
    19:00 +19°C° 0 mm 1 m/s 763 mmHg 75%
    20:00 +18°C° 0 mm 1 m/s 763 mmHg 78%
    21:00 +16°C° 0 mm 1 m/s 763 mmHg 78%
    22:00 +16°C° 0 mm 1 m/s 763 mmHg 78%
    23:00 +15°C° 0 mm 0 m/s 763 mmHg 78%

    Après-demain, 19 Octobre, Samedi

    Heure Température Précipitation Vent Pression Humidité
    00:00 +15°C° 0 mm 0 m/s 763 mmHg 77%
    01:00 +14°C° 0 mm 0 m/s 763 mmHg 76%
    02:00 +15°C° 0 mm 1 m/s 763 mmHg 75%
    03:00 +14°C° 0 mm 0 m/s 763 mmHg 74%
    04:00 +14°C° 0 mm 0 m/s 763 mmHg 73%
    05:00 +14°C° 0 mm 0 m/s 763 mmHg 71%
    06:00 +15°C° 0 mm 0 m/s 763 mmHg 68%
    07:00 +16°C° 0 mm 0 m/s 764 mmHg 65%
    08:00 +16°C° 0 mm 0 m/s 764 mmHg 62%
    09:00 +18°C° 0 mm 0 m/s 764 mmHg 57%
    10:00 +22°C° 0 mm 1 m/s 764 mmHg 51%
    11:00 +24°C° 0 mm 1 m/s 764 mmHg 46%
    12:00 +24°C° 0 mm 1 m/s 764 mmHg 46%
    13:00 +25°C° 0 mm 2 m/s 763 mmHg 45%
    14:00 +25°C° 0 mm 2 m/s 763 mmHg 45%
    15:00 +24°C° 0 mm 2 m/s 763 mmHg 52%
    16:00 +21°C° 0 mm 2 m/s 763 mmHg 60%
    17:00 +19°C° 0 mm 2 m/s 763 mmHg 67%
    18:00 +18°C° 0 mm 2 m/s 763 mmHg 72%
    19:00 +17°C° 0 mm 2 m/s 764 mmHg 76%
    20:00 +16°C° 0 mm 2 m/s 764 mmHg 80%
    21:00 +16°C° 0 mm 1 m/s 764 mmHg 80%
    22:00 +16°C° 0 mm 1 m/s 764 mmHg 81%
    23:00 +16°C° 0 mm 1 m/s 765 mmHg 81%

    20 Octobre, Dimanche

    Heure Température Précipitation Vent Pression Humidité
    00:00 +14°C° 0 mm 0 m/s 765 mmHg 81%
    01:00 +14°C° 0 mm 0 m/s 764 mmHg 80%
    02:00 +14°C° 0 mm 0 m/s 764 mmHg 79%
    03:00 +14°C° 0 mm 0 m/s 764 mmHg 78%
    04:00 +14°C° 0 mm 0 m/s 765 mmHg 77%
    05:00 +14°C° 0 mm 0 m/s 765 mmHg 76%
    06:00 +15°C° 0 mm 0 m/s 765 mmHg 72%
    07:00 +16°C° 0 mm 0 m/s 765 mmHg 68%
    08:00 +16°C° 0 mm 0 m/s 765 mmHg 64%
    09:00 +20°C° 0 mm 1 m/s 765 mmHg 58%
    10:00 +22°C° 0 mm 1 m/s 765 mmHg 52%
    11:00 +24°C° 0 mm 1 m/s 765 mmHg 47%
    12:00 +24°C° 0 mm 2 m/s 765 mmHg 46%
    13:00 +24°C° 0 mm 2 m/s 765 mmHg 46%
    14:00 +25°C° 0 mm 3 m/s 765 mmHg 46%
    15:00 +23°C° 0 mm 2 m/s 765 mmHg 53%
    16:00 +21°C° 0 mm 2 m/s 764 mmHg 59%
    17:00 +19°C° 0 mm 2 m/s 764 mmHg 66%
    18:00 +18°C° 0 mm 2 m/s 765 mmHg 69%
    19:00 +17°C° 0 mm 2 m/s 765 mmHg 73%
    20:00 +16°C° 0 mm 1 m/s 765 mmHg 76%
    21:00 +16°C° 0 mm 1 m/s 765 mmHg 77%
    22:00 +16°C° 0 mm 1 m/s 766 mmHg 77%
    23:00 +15°C° 0 mm 1 m/s 766 mmHg 78%

    21 Octobre, Lundi

    Heure Température Précipitation Vent Pression Humidité
    00:00 +15°C° 0 mm 1 m/s 766 mmHg 79%
    01:00 +14°C° 0 mm 0 m/s 766 mmHg 79%
    02:00 +14°C° 0 mm 0 m/s 766 mmHg 80%
    03:00 +13°C° 0 mm 0 m/s 766 mmHg 80%
    04:00 +14°C° 0 mm 1 m/s 766 mmHg 80%
    05:00 +14°C° 0 mm 1 m/s 766 mmHg 81%
    06:00 +15°C° 0 mm 1 m/s 766 mmHg 77%
    07:00 +16°C° 0 mm 1 m/s 766 mmHg 74%
    08:00 +18°C° 0 mm 1 m/s 766 mmHg 71%
    09:00 +19°C° 0 mm 1 m/s 766 mmHg 64%
    10:00 +20°C° 0 mm 2 m/s 766 mmHg 57%
    11:00 +23°C° 0 mm 2 m/s 766 mmHg 50%
    12:00 +23°C° 0 mm 2 m/s 766 mmHg 49%
    13:00 +24°C° 0 mm 3 m/s 766 mmHg 47%
    14:00 +24°C° 0 mm 3 m/s 766 mmHg 45%
    15:00 +22°C° 0 mm 3 m/s 766 mmHg 53%
    16:00 +20°C° 0 mm 3 m/s 766 mmHg 60%
    17:00 +18°C° 0 mm 2 m/s 766 mmHg 67%
    18:00 +18°C° 0 mm 2 m/s 766 mmHg 71%
    19:00 +17°C° 0 mm 2 m/s 766 mmHg 75%
    20:00 +16°C° 0 mm 2 m/s 766 mmHg 80%
    21:00 +16°C° 0 mm 2 m/s 766 mmHg 81%
    22:00 +16°C° 0 mm 2 m/s 766 mmHg 82%
    23:00 +15°C° 0 mm 1 m/s 766 mmHg 83%

    22 Octobre, Mardi

    Heure Température Précipitation Vent Pression Humidité
    00:00 +15°C° 0 mm 2 m/s 766 mmHg 83%
    01:00 +15°C° 0 mm 2 m/s 766 mmHg 83%
    02:00 +15°C° 0 mm 2 m/s 766 mmHg 84%
    03:00 +15°C° 0 mm 2 m/s 766 mmHg 83%
    04:00 +15°C° 0 mm 2 m/s 766 mmHg 82%
    05:00 +14°C° 0 mm 2 m/s 766 mmHg 82%
    06:00 +15°C° 0 mm 2 m/s 766 mmHg 77%
    07:00 +16°C° 0 mm 2 m/s 766 mmHg 73%
    08:00 +17°C° 0 mm 2 m/s 766 mmHg 69%
    09:00 +19°C° 0 mm 2 m/s 766 mmHg 61%
    10:00 +20°C° 0 mm 2 m/s 766 mmHg 54%
    11:00 +23°C° 0 mm 2 m/s 766 mmHg 46%
    12:00 +24°C° 0 mm 3 m/s 765 mmHg 46%
    13:00 +23°C° 0 mm 4 m/s 765 mmHg 45%
    14:00 +23°C° 0 mm 5 m/s 765 mmHg 45%
    15:00 +22°C° 0 mm 4 m/s 765 mmHg 55%
    16:00 +20°C° 0 mm 4 m/s 764 mmHg 65%
    17:00 +19°C° 0 mm 4 m/s 764 mmHg 74%
    18:00 +18°C° 0 mm 3 m/s 764 mmHg 80%
    19:00 +17°C° 0 mm 3 m/s 765 mmHg 85%
    20:00 +16°C° 0 mm 3 m/s 765 mmHg 91%
    21:00 +16°C° 0 mm 3 m/s 765 mmHg 91%
    22:00 +14°C° 0 mm 3 m/s 765 mmHg 92%
    23:00 +14°C° 0 mm 3 m/s 765 mmHg 92%
    Voir plus